Погода Красный Яр

Погода Красный Яр : погода сейчас, прогноз погоды и архив. Всё, что Вы хотите узнать о погоде Красный Яр!

Хотите узнать прогноз погоды Красный Яр? Тогда Вам сюда: Погода Красный Яр

Поиск расширенной информации на нашем сайте:

Другие новости

Новости СМИ2

Главная страница сайта

Новости сайта

03.07.2017

Напоминаем, что на нашем специализированном сайте Метеоцентр.Азия вы можете получить высокодетализированные автоматические прогнозы погоды по пунктам России, СНГ и мира в авиационном формате (включающие направление и скорость ветра, видимость, явления погоды, количество и форму облачности, нижнюю и верхнюю границу облачности).

Рекомендуем: Самая детальная информация у нас на сайте: усыновление - смотрите тут.

Погода Красный Яр - сегодня

Время (UTC), дата Ветер
(°,м/с) 
Видим.   Явления Облачность Т
(°С)
Тd
(°С)
f(%) Тe
(°С)
Pmin
(гПа)
dP
(гПа)
Po
(мм)
O2
(г/м3)
Тmin Tmax R s Состояние
почвы
21 21.07.17 тихо ()   20000 м    ясно 
+13 +12.9 99 +18  1011.9  1.5  747  285  +10.3        влажная 
00 22.07.17 290 (З) 20000 м    3/0 верхняя 
[Ci fib]
+22.1 +16.1 69 +33  1011.6  0.2  748  275           
03 22.07.17 230 (ЮЗ) 20000 м    6/0 верхняя 
[Ci]
+26 +14.3 48 +34  1010.4  -1  747  272           
06 22.07.17 280 (З) 20000 м    4/4 600 м 
[Cu hum]
+27.2 +14.4 45 +35  1009.3  -1  746  270           
09 22.07.17 240 (ЮЗ) 20000 м    ясно 
+27.2 +15.6 49 +37  1008.5  -0.7  745  270    +28.2       
12 22.07.17 тихо ()   20000 м    ясно 
+16.6 +15.2 91 +26  1009.6  0.6  746  280           
15 22.07.17 тихо ()   20000 м    ясно 
+13.3 +13.1 99 +19  1009.5  -0.3  746  284           
18 22.07.17 тихо ()   20000 м    ясно 
+11.7 +11.7 100 +15  1008.7  -0.9  745  286           
21 22.07.17 020 (С) 20000 м    5/0 верхняя 
[Ci]
+12.6 +12.5 99 +19  1008.1  -0.5  745  284  +11.6        влажная 
00 23.07.17 090 (В) 20000 м    3/0 верхняя 
[Ci sp]
+22.2 +16.1 68 +33  1006.7  -0.9  744  274           
03 23.07.17 260 (З) 20000 м    4/0 верхняя 
[Ci sp]
+27.6 +16.3 50 +39  1004.3  -2.1  742  268           
06 23.07.17 270 (З) 20000 м    6/0 верхняя 
[Cu hum|Ci]
+27.6 +16.4 50 +39  1002.5  -1.7  741  268           
09 23.07.17 270 (З) 20000 м    5/3 600 м верхняя 
[Cu hum|Ci fib]
+27.9 +17.6 54 +42  1001.3  -1.2  740  267    +29.5       
12 23.07.17 тихо ()   20000 м    8/0 средняя, верхняя 
[Ac trans|Cs]
+19.1 +17.9 93 +34  1002.4  0.7  741  275           
15 23.07.17 350 (С) 20000 м    8/5 600 м кучево-дожд., верхняя 
[Cb cap|Ci fib]
+17.8 +17.2 96 +32  1001.4  -1  740  276           
18 23.07.17 тихо ()   20000 м    10/10 600 м кучево-дожд. 
[Cb cap]
+17.6 +16.8 95 +30  1000.3  -1.1  739  276           
21 23.07.17 240 (ЮЗ) 20000 м    8/6 600 м кучево-дожд., верхняя 
[Cb cap|Ci]
+19.4 +16.4 83 +33  1000.1  -0.1  739  274  +17.4        влажная 
00 24.07.17 230 (ЮЗ) 20000 м    9/9 600 м кучево-дожд. 
[Cb cap]
+22.4 +17.7 75 +37  999.7  -0.3  739  271           
03 24.07.17 270 (З) 20000 м    10/10 600 м кучево-дожд. 
[Cb cap]
+21.9 +19.6 87 +40  998.5  -1.2  738  270           
06 24.07.17 230 (ЮЗ) 20000 м  {ливн. осадки}  9/6 600 м кучево-дожд., средняя 
[Cb cap|Ac trans]
+21.9 +19.5 86 +40  998.2  -0.4  738  270           
09 24.07.17 210 (ЮЗ) 20000 м    9/8 600 м кучево-дожд., средняя 
[Cb cap|Ac trans]
+20.1 +16.3 79 +32  998.2  0.1  738  273    +25.6  0.3     
12 24.07.17 240 (ЮЗ) 20000 м    10/10 600 м кучево-дожд. 
[Cb cap]
+17.8 +15.9 89 +30  999.5  1.2  738  276           
15 24.07.17 260 (З) 20000 м    10/10 600 м кучево-дожд. 
[Cb cap]
+17.9 +16.4 91 +31  999.9  0.4  739  276           
18 24.07.17 280 (З) 20000 м    10/10 600 м кучево-дожд. 
[Cb cap]
+16.9 +15.2 90 +27  1000  739  277           
21 24.07.17 230 (ЮЗ) 20000 м    9/9 600 м кучево-дожд. 
[Cb cap]
+17.3 +15.7 90 +29  1000.2  0.2  739  277  +16.4        влажная 
Время (UTC), дата Ветер
(°,м/с) 
Видим.   Явления Облачность Т
(°С)
Тd
(°С)
f(%) Тe
(°С)
Pmin
(гПа)
dP
(гПа)
Po
(мм)
O2
(г/м3)
Тmin Tmax R s Состояние
почвы

Для получения пояснительной информации подведите курсор к названию столбца.

ПОГОДА Красный Яр - архив

Всё, что Вы хотите узнать о погоде Красный Яр - удобно и подробно!

Выберите нужную дату (начиная с 1 января 2015* года) и нажмите кнопку "Найти".
Будут отображены архивные сводки погоды по пункту Красный Яр, начиная с указанной даты.


Отображать данные в формате CSV (для использования в таблицах Excel)


Внимание! Наш архив погоды предназначен исключительно для личного некоммерческого использования в познавательных целях. Если Вам необходимы официальные справки о состоянии погоды (для производственных, юридических, коммерческих и т.п. целей), обращайтесь в органы Росгидромета.

*Примечание: данная дата относится к архиву по метеостанциям СССР (Россия, СНГ, Балтия).
Архив по метеостанциям Зарубежной Европы и Азии (кроме Китая) хранится 10 дней, по другим регионам земного шара (Китай, Африка, Америка, Австралия, Океания) - 1 день.

Красный Яр - район местоположения метеостанции


Название, широта, долгота, высота метеостанции:
Красный Яр 46.5°ш. 135.3°д. 130 м над ур. моря [Российская Федерация]

Дополнительная информация

В oтличие oт бoльшинства пoгoдных сайтoв мы публикуем пoдрoбную метеoинфoрмацию в детальнoм прoфессиoнальнoм фoрмате.

Характеристики температуры и влажнoсти вoздуха измеряются на высoте 2 м в тени вдали oт зданий и деревьев.
Скoрoсть ветра измеряется на высoте 10 м (на урoвне рoста челoвека скoрoсть ветра ниже в 1.5-2 раза). Если метеoстанция нахoдится в гoрoде или в лесу, тo скoрoсть ветра занижена на 2-4 м/с пo сравнению с oткрытым местoм. Скoрoсть ветра над акватoриями крупных рек и oзёр, а также на вершинах хoлмoв на 2-5 м/с выше, чем в oбычных услoвиях.
Атмoсфернoе давление в разных тoчках местнoсти мoжет значительнo oтличаться oт давления на метеoстанции, в зависимoсти oт услoвий рельефа (при пoдъёме на 10 м давление пoнижается примернo на 1 мм рт.ст.).